Погода в Жадрицах

Россия / Псковская область     56°55′34″N   29°09′45″E
темп.,
°C
ветер,
м/с
пор.,
м/с
влажн.,
%
обл.,
%
осадки,
мм/ч
давл.,
гПа
погр.,
м
18 мая, вт
вт1800:00+13с3799100 0.4 1004238
03:00+14всв159993 2.3 1003217
06:00+13ссз1399100 0.2 1002140
09:00+15всв2598100 1.8 1002351
12:00+18юв2894100 0.6 1002626
15:00+21ююв596799 1.2 10021469
18:00+18ююв31083100 0.6 1001442
21:00+15ююв2793100 0.8 1001214
19 мая, ср
ср1900:00+13св0096100 0.3 100111
03:00+14всв2598100 0.4 999132
06:00+14ю3898100 2.2 999328
09:00+16ююв4119293 2.4 1000802
12:00+16ююв3792100 1.7 1001966
15:00+17ююз588899 3.3 1001962
18:00+16юз369190 0.9 1003577
21:00+13зюз2595100 0.9 1004321
20 мая, чт
чт2000:00+9зюз2599100 0.0 1005174
03:00+8з279989 0.0 1005253
06:00+9зсз2693100 0.0 1005515
09:00+9зсз3798100 1.6 1006472
12:00+9сз4998100 2.4 1005619
15:00+9сз51098100 4.3 1005807
18:00+9сз51297100 3.1 1004996
21:00+9сз51494100 5.2 10061152
21 мая, пт
пт2100:00+8з31297100 0.1 1006586
03:00+7з41393100 0.1 1008502
06:00+5зюз3119131 0.0 1010390
09:00+11зюз58590 0.0 1011770
12:00+15зюз58475 0.0 10111815
15:00+14з685076 0.0 10121951
18:00+15зюз58495 0.0 10122164
21:00+10юз39716 0.0 1014297
22 мая, сб
сб2200:00+6ююз39870 0.0 1015199
03:00+5ююз26915 0.0 1015108
06:00+7ю31080100 0.0 1015252
09:00+12ю41064100 0.0 1014577
12:00+17ююз6946100 0.0 10141733
15:00+18ююз594114 0.0 10132146
18:00+18ю49507 0.0 10112133
21:00+13ююв412675 0.0 1011452